User: anonymous   Login
Location: Muenchen
(48.1800°N, 11.5800°E)
Time: 06:03:57
(UTC+01:00)
Language:

Cosmos 2233 Rocket - Orbit

View from above orbital plane
View from above orbital plane
View from above satellite
View from above satellite

Ground track
Ground track

The orbit data is extracted from the following two-line orbital elements,

1 22488U 93008B   17023.91240638 -.00000057  00000-0 -71726-4 0  9991
2 22488  82.9426 185.7960 0024270 269.2686 247.4891 13.77707349204398
Epoch (UTC): 23 January 2017 21:53:51
Eccentricity: 0.0024270
inclination: 82.9426°
perigee height: 954 km
apogee height: 990 km
right ascension of ascending node: 185.7960°
argument of perigee: 269.2686°
revolutions per day: 13.77707349
mean anomaly at epoch: 247.4891°
orbit number at epoch: 20439

The dashed part of the orbit path shows where the satellite is in the earth's shadow,  

DLR